Theta_e
338 335 335 333 333 334 334 335 338 342 342 344 343 344 343 344 343 341 341 351 350 348 345 346 349 352 356 357 357 356 354 352 352 350 349 348 348 347 345 343 342 341 339
340 335 332 330 331 333 333 333 333 335 335 336 336 338 339 341 338 339 337 339 349 348 348 347 351 352 354 357 357 356 355 353 353 351 350 349 348 348 346 345 344 343 341
337 338 329 326 328 331 328 331 331 334 332 332 336 335 335 335 335 336 335 336 337 348 348 348 350 352 353 358 359 358 356 354 353 352 351 350 349 348 348 346 345 343 341
333 337 328 326 329 330 326 325 326 326 328 332 332 330 332 333 334 334 334 333 334 337 349 353 353 354 353 356 355 356 356 354 354 351 351 351 350 349 349 347 345 344 340
329 332 328 327 334 326 326 326 327 327 323 327 326 330 327 332 332 330 332 336 340 340 338 350 353 354 355 356 355 352 352 351 350 350 349 350 350 350 348 346 344 341 339
332 332 330 331 330 326 325 328 332 325 323 323 322 323 325 324 328 331 331 337 338 341 342 350 351 352 353 354 353 350 348 347 347 347 346 346 345 345 344 342 340 339 337
331 333 329 330 330 326 331 328 328 324 321 322 318 320 322 327 329 329 330 333 340 340 345 346 350 353 349 349 348 348 347 346 345 343 341 341 341 340 341 340 338 335 333
329 329 329 329 332 325 333 329 331 323 320 323 316 314 310 315 323 326 327 337 338 340 339 342 345 347 348 349 347 345 345 345 343 341 338 337 336 336 334 332 330 329 327
326 328 326 328 328 327 320 327 327 322 316 323 328 316 309 308 313 322 329 331 336 337 337 337 342 344 346 345 344 343 342 340 340 338 335 333 332 331 330 328 327 325 323
324 324 327 326 328 322 324 323 323 326 328 320 319 320 323 318 311 310 324 333 334 334 336 338 340 341 343 343 339 338 337 337 336 334 333 331 329 327 325 323 321 320 320
326 320 323 323 322 318 319 319 321 324 323 325 323 315 317 315 316 314 310 320 327 331 331 333 335 339 340 340 339 334 332 331 330 328 327 325 324 323 321 321 320 320 320
318 322 320 320 318 318 317 317 319 320 323 322 322 323 316 313 312 318 314 316 320 324 325 326 326 331 334 331 330 327 325 324 323 322 321 321 321 320 320 318 318 317 317
316 318 320 319 316 317 316 316 316 317 317 320 323 323 319 313 316 322 320 319 316 321 322 322 324 326 327 326 325 324 321 319 318 318 317 317 316 316 315 315 314 314 314
315 318 318 318 317 317 316 317 314 313 317 317 319 325 323 325 315 324 319 318 311 311 317 319 322 323 324 321 321 320 317 316 315 314 314 313 313 313 312 312 312 312 311
317 317 317 316 316 316 315 316 312 313 317 315 318 325 319 324 317 323 324 322 314 306 308 314 316 320 320 319 317 315 314 314 313 312 311 311 310 310 310 310 310 309 309
317 315 314 311 310 309 309 313 313 312 314 313 320 320 319 317 321 318 327 325 318 312 306 313 315 318 318 318 318 315 314 313 312 311 310 309 309 308 308 307 307 307 307
314 313 308 308 307 306 308 309 313 312 311 311 313 313 315 315 320 315 318 320 316 316 311 312 315 314 314 314 314 315 316 313 311 310 309 308 307 307 306 306 305 305 305
311 308 307 307 306 306 307 306 310 310 309 310 311 311 313 315 316 316 316 321 318 320 313 310 311 312 312 314 316 316 314 314 311 309 308 307 306 306 305 305 304 304 303
308 307 307 306 306 306 306 307 311 310 310 311 310 310 312 314 315 318 318 320 316 317 317 317 311 314 314 314 314 314 313 313 310 309 308 307 306 306 306 304 303 302 302
306 306 307 307 307 307 306 309 309 310 310 310 311 310 310 311 314 315 314 315 317 315 317 315 313 311 310 313 312 310 309 308 308 309 309 309 307 305 306 306 305 302 301
306 306 306 307 308 307 307 307 309 310 310 310 312 311 311 313 312 313 313 316 317 316 317 313 316 310 308 308 308 310 308 310 310 310 309 307 310 309 308 305 303 301 300
305 306 306 307 307 308 305 305 307 310 310 310 310 311 312 312 311 311 311 311 312 317 317 313 317 310 308 309 311 310 308 305 303 310 306 305 308 303 300 301 299 299 299
305 305 306 307 306 309 304 303 305 309 310 311 311 311 311 310 312 313 310 311 310 310 312 319 319 315 310 313 311 309 308 308 307 308 307 303 306 305 305 302 298 298 298
305 305 307 307 306 310 303 301 304 310 311 311 311 312 313 313 313 314 315 315 315 316 318 319 321 321 319 317 316 314 313 309 310 309 309 300 306 307 310 306 298 298 297
305 307 307 306 305 308 301 300 304 310 309 309 311 312 312 313 305 306 313 313 314 317 310 308 306 306 305 307 313 315 309 305 303 304 307 307 310 308 309 306 302 298 297
306 307 306 306 306 308 300 299 303 311 309 309 311 312 306 309 302 303 313 313 313 316 316 317 313 309 311 310 310 317 312 305 302 301 307 307 309 309 303 307 305 303 303
Wind_Speed
6 8 7 8 9 9 9 8 9 6 10 11 13 12 9 8 11 5 8 11 12 11 10 10 12 13 12 11 15 16 17 17 15 15 15 15 14 14 14 14 13 12 11
5 8 8 8 8 7 9 10 10 9 9 11 10 12 11 8 10 10 8 6 12 13 11 10 9 11 12 12 13 14 15 13 14 16 15 14 14 14 16 15 14 14 14
6 7 9 8 8 9 12 9 10 9 10 7 8 9 9 12 10 9 8 9 9 12 10 8 7 10 12 11 13 13 12 13 14 15 15 14 15 15 16 16 12 12 8
8 6 8 9 8 7 11 9 9 10 9 6 9 6 8 8 9 9 9 12 9 5 8 7 6 8 12 11 12 13 11 10 11 12 12 13 14 14 14 14 10 7 18
11 8 8 9 9 9 11 10 8 9 8 9 6 5 10 8 8 11 12 8 7 7 8 7 6 4 10 10 11 10 8 7 7 8 9 9 10 10 9 6 12 15 13
13 9 10 8 7 10 8 8 10 8 11 10 10 10 8 7 9 7 10 7 12 4 6 5 5 6 9 10 11 10 9 7 7 8 11 11 11 12 13 14 13 12 10
11 6 9 11 10 10 4 7 8 9 9 11 10 7 11 10 11 9 8 9 2 10 5 4 1 3 7 12 11 13 14 15 16 17 14 13 13 14 14 14 14 12 9
6 10 10 10 11 11 11 8 8 7 10 10 10 11 11 10 11 11 9 4 10 4 6 2 3 7 7 6 11 16 17 18 19 20 19 17 17 16 15 14 11 9 7
11 12 12 11 10 10 12 12 6 7 2 15 10 11 8 11 12 5 3 1 6 4 3 4 5 4 9 8 10 14 19 20 21 20 19 17 16 15 14 12 9 7 5
14 15 16 12 10 11 12 12 13 12 10 9 10 10 7 4 12 13 2 6 2 3 4 5 6 3 7 8 10 17 18 19 20 19 18 17 15 14 12 10 8 6 4
16 16 13 12 8 8 11 13 13 13 10 10 11 0 13 10 10 11 12 5 5 1 4 7 4 3 4 9 9 16 19 20 18 18 16 16 13 10 9 8 7 7 6
11 10 9 8 8 9 10 10 13 14 13 12 11 11 7 5 3 10 8 13 6 4 4 4 5 4 3 6 15 21 21 20 18 16 16 14 13 10 10 8 7 6 5
10 9 9 6 6 8 10 10 12 12 15 13 13 11 11 12 6 7 5 7 4 3 3 1 2 5 5 7 9 18 19 20 18 17 16 13 13 11 10 9 8 7 6
11 8 10 10 11 12 11 10 10 10 14 12 16 13 13 7 1 10 5 4 2 1 3 4 2 2 6 8 14 20 12 19 18 17 15 14 12 11 11 9 9 9 7
10 11 13 12 13 14 13 11 11 13 13 10 12 13 10 5 1 13 7 5 4 1 2 0 2 1 7 8 11 8 9 17 18 17 15 13 12 11 10 10 9 9 7
13 10 9 8 9 10 12 13 11 11 13 7 8 11 7 3 6 2 6 7 7 4 0 3 1 4 9 8 12 10 11 16 16 15 14 13 12 11 10 11 10 10 8
12 9 6 10 10 10 11 12 14 12 11 8 5 8 4 6 3 4 8 3 5 7 5 2 2 6 5 10 9 9 9 11 10 14 14 11 10 11 11 11 10 10 10
5 8 10 11 11 11 10 11 14 10 7 10 2 5 8 7 6 10 9 3 2 3 4 10 4 3 3 7 9 8 7 9 10 12 12 11 11 12 12 11 11 12 10
9 12 11 11 11 10 10 10 12 9 8 7 6 3 6 2 3 3 5 1 5 6 4 6 4 2 3 3 4 5 9 9 9 14 12 10 7 8 9 11 11 11 10
11 11 11 11 10 9 9 12 12 7 6 5 8 5 5 5 6 5 4 5 5 7 8 9 7 5 3 4 5 7 8 7 8 8 7 8 5 4 4 8 12 12 13
10 11 11 10 9 8 7 9 10 10 6 8 6 9 7 8 4 5 4 1 5 6 6 4 9 7 6 7 7 6 6 7 6 3 6 3 2 2 6 9 11 13 11
11 10 10 10 8 6 9 11 7 6 5 5 7 7 7 8 5 3 3 4 5 4 7 4 9 9 7 8 6 6 8 7 4 4 4 3 3 6 6 7 9 11 10
11 11 10 5 7 9 9 8 7 8 4 5 6 6 7 5 8 8 8 5 5 1 2 5 6 11 11 10 10 9 8 6 5 6 5 2 2 3 6 7 7 9 8
11 9 7 5 5 6 6 9 8 8 3 4 4 6 6 7 4 4 8 8 6 6 3 3 2 8 10 12 13 9 7 8 8 5 2 2 3 3 4 8 9 8 8
9 6 3 4 5 3 8 8 7 5 4 5 5 6 7 5 8 6 3 3 4 8 14 15 11 10 13 11 9 8 9 9 5 3 1 3 4 4 4 7 7 9 8
8 6 4 3 4 4 7 7 7 2 5 5 5 6 11 9 8 8 2 2 3 7 9 11 8 11 10 8 9 7 8 7 5 2 5 4 5 4 2 2 6 7 6
Wind_Direction
18 329 344 317 337 330 322 331 319 329 312 291 280 273 263 264 299 322 303 164 177 190 215 240 252 249 246 240 225 217 213 219 213 213 215 221 220 222 227 232 223 220 213
14 315 319 351 313 327 334 318 315 318 308 310 305 300 294 307 279 272 274 249 190 199 203 216 236 244 241 247 216 207 212 215 215 214 215 222 225 222 231 234 229 219 210
328 334 311 317 328 358 313 313 310 303 295 297 321 299 281 269 261 264 264 270 248 204 193 203 221 233 236 231 203 205 207 211 211 213 218 223 227 226 229 241 240 242 188
321 312 316 317 1 311 317 312 307 307 303 330 320 321 311 326 306 282 269 263 260 289 169 169 194 216 225 220 196 195 206 211 213 219 222 229 234 235 232 238 243 198 169
312 314 304 317 343 308 297 312 351 352 328 326 288 322 345 328 328 299 291 282 282 274 271 125 126 188 205 206 185 189 204 206 209 217 231 240 244 242 227 161 150 159 168
303 333 316 300 315 292 303 324 331 323 313 269 284 288 291 301 323 305 300 345 296 238 273 33 149 98 115 131 134 137 130 123 126 117 102 102 104 109 122 134 141 152 158
274 315 303 309 307 288 302 287 298 299 287 290 285 266 278 236 252 276 291 279 327 346 126 261 137 147 120 119 131 133 123 117 108 105 102 103 108 111 115 112 107 113 119
299 313 327 309 307 308 291 281 273 263 269 278 285 296 296 270 236 230 252 343 307 36 339 357 234 178 142 136 139 128 127 124 114 104 97 92 94 96 98 101 105 110 115
320 307 312 294 293 286 285 290 285 271 227 276 288 278 290 290 291 294 154 152 268 306 315 287 290 192 164 146 138 132 119 115 112 108 105 104 102 100 96 93 95 96 98
307 302 280 286 299 299 292 284 270 283 288 281 287 279 262 208 289 289 191 155 244 323 298 313 314 292 170 130 135 122 112 112 110 110 105 101 97 97 97 93 84 77 68
276 291 303 296 319 342 329 318 310 291 279 275 274 32 298 254 222 270 273 229 220 42 1 352 346 333 134 128 118 105 105 101 99 100 104 99 97 97 95 91 87 74 58
306 305 342 346 331 316 309 309 302 295 284 284 266 261 232 308 248 251 258 280 256 226 272 340 356 335 103 101 107 107 99 99 95 96 93 94 93 89 81 74 65 59 53
315 317 326 303 292 283 279 280 288 284 280 280 270 260 238 203 228 244 223 248 284 292 259 160 39 304 107 102 111 104 107 104 102 98 95 96 89 88 78 70 60 44 30
297 299 305 299 297 293 294 292 286 283 279 280 273 258 260 241 98 243 211 223 208 248 266 176 141 282 92 98 112 106 103 100 102 99 97 87 94 88 81 68 55 43 34
299 300 313 310 308 301 290 291 281 282 284 279 275 265 249 254 195 222 188 170 174 68 316 109 141 270 111 96 104 100 100 105 93 91 96 96 90 80 69 59 52 44 25
293 307 307 317 310 310 298 289 279 286 291 287 287 273 229 222 269 31 175 160 171 140 188 3 28 122 120 118 111 98 100 101 101 101 97 90 80 74 63 48 40 30 21
296 306 302 291 281 280 279 286 282 280 286 275 305 298 188 178 221 8 267 137 153 170 150 112 47 55 103 114 121 128 136 110 104 99 93 87 81 74 64 55 47 39 30
337 294 288 275 271 267 271 281 282 280 278 274 332 307 261 192 214 198 251 173 210 255 202 129 135 132 42 118 146 154 131 112 111 103 103 107 97 86 75 67 51 43 35
301 294 283 272 268 265 267 272 283 267 277 255 220 245 301 292 225 225 260 147 245 215 203 140 121 128 132 141 126 118 113 109 98 124 121 119 114 97 91 80 70 54 37
293 289 283 278 265 258 261 268 281 280 260 263 212 222 243 273 259 241 238 259 259 262 222 164 142 140 115 139 123 130 127 137 142 121 92 87 156 137 131 101 64 44 39
291 287 285 278 264 249 248 252 255 259 233 242 224 201 210 251 356 19 303 318 277 244 232 196 152 140 133 146 158 162 142 118 69 157 113 109 62 166 146 66 35 47 42
291 284 283 281 265 244 241 235 259 265 250 226 227 196 205 190 198 195 249 302 342 276 246 258 152 154 142 162 145 152 132 132 147 139 129 79 352 82 70 62 44 53 50
294 285 280 273 275 248 226 212 218 257 248 212 217 194 212 189 215 199 189 178 221 274 331 324 180 158 159 163 153 147 150 178 118 143 125 89 308 131 109 106 87 84 74
297 296 281 264 273 263 185 180 190 241 200 214 206 195 195 157 165 193 168 190 200 184 197 222 173 161 153 155 167 153 154 106 118 122 93 110 239 185 148 128 136 121 111
308 302 294 291 266 217 157 170 192 205 216 186 180 169 185 172 91 42 128 171 183 113 70 72 71 105 105 135 157 135 140 134 121 92 161 265 182 120 32 142 145 157 179
308 307 285 286 247 168 164 168 203 185 187 141 129 141 58 86 95 43 70 86 136 122 120 107 81 94 121 100 96 140 151 128 103 131 215 234 145 122 144 80 83 170 192